カタログに戻る

COSMOS 970 DEB

運用中LEO
NORAD 12864·DEBRIS·🇷🇺 Russia

打ち上げ Dec 21, 1977 から Baikonur Cosmodrome

Loading…

次のパス (今後24時間)

TLE

最新Source: Space-Track

元期: Sep 14, 2026, 07:07 UTC

1 12864U 77121AS  26257.29694380  .00000763  00000-0  60702-3 0  9996
2 12864  65.8327   4.5533 0100347 295.9449  93.5345 13.94642782330833

AllMySatでCOSMOS 970 DEBをリアルタイム追跡

Download on the App Store